DateTimeUTC,F1_A11,F1_S11,BsB_S11,BsG_S11,BsR_S11,BbsB_S11,BbsG_S11,BbsR_S11,BaB_A11,BaG_A11,BaR_A11,Tu_S11,T_S11,Uu_S11,U_S11,P_S11,T1_A11
2021-03-20T20:00:00Z,00000200,21000000,,,,,,,0000.28,-000.00,-000.06,17.2,24.6,,00.0,0642.2,31.0
2021-03-20T20:01:00Z,00000200,21000000,,,,,,,0000.08,0000.03,0000.07,17.1,24.6,,00.0,0642.2,31.0
2021-03-20T20:02:00Z,00000200,21000000,,,,,,,-000.16,0000.02,-000.02,17.1,24.6,,00.0,0642.2,31.0
2021-03-20T20:03:00Z,00000200,61000000,,,,,,,0000.24,0000.12,-000.01,17.1,24.6,,00.0,0642.2,31.0
2021-03-20T20:04:00Z,00000200,41000000,0001.36,0000.66,0000.34,0000.43,-000.01,0000.13,0000.21,0000.08,0000.57,17.1,24.3,,00.0,0643.1,31.0
2021-03-20T20:05:00Z,00000200,01000000,0000.78,0001.27,0000.35,0000.07,0000.10,-000.01,0000.64,0000.68,0000.24,17.2,24.2,,00.0,0643.2,30.9
2021-03-20T20:06:00Z,00000200,01000000,0001.05,0000.79,0000.38,0000.04,-000.13,-000.02,0000.61,0000.72,0000.69,17.2,24.2,,00.0,0643.2,30.9
2021-03-20T20:07:00Z,00000200,01000000,0001.10,0000.76,0000.19,0000.32,0000.15,-000.10,0000.84,0000.60,0000.58,17.2,24.2,,00.0,0643.2,31.0
2021-03-20T20:08:00Z,00000200,01000000,0001.15,0000.58,0000.44,0000.12,0000.19,-000.01,0000.22,0000.26,-000.16,17.3,24.2,,00.0,0643.2,31.0
2021-03-20T20:09:00Z,00000200,01000000,0001.08,0000.89,0000.54,-000.05,-000.04,-000.03,0000.55,0000.60,0000.46,17.3,24.2,,00.0,0643.1,31.0
2021-03-20T20:10:00Z,00000200,01000000,0001.16,0000.92,0000.35,0000.69,0000.12,-000.00,0000.40,0000.39,0000.20,17.4,24.3,,00.0,0643.2,31.0
2021-03-20T20:11:00Z,00000200,01000000,0001.29,0000.90,0000.61,0000.20,0000.29,-000.07,0000.28,0000.49,0000.34,17.4,24.3,,00.0,0643.2,31.0
2021-03-20T20:12:00Z,00000200,01000000,0001.32,0000.45,0000.47,0000.13,0000.33,0000.27,0000.46,0000.20,-000.07,17.5,24.3,,00.0,0643.2,31.0
2021-03-20T20:13:00Z,00000200,01000000,0001.11,0000.92,0000.32,0000.11,0000.10,0000.24,-000.02,0000.16,0000.37,17.5,24.3,,00.0,0643.2,31.0
2021-03-20T20:14:00Z,00000200,01000000,0001.28,0000.89,0000.60,-000.05,0000.03,0000.32,0000.59,0000.26,0000.85,17.5,24.3,,00.0,0643.2,31.0
2021-03-20T20:15:00Z,00000200,01000000,0001.11,0000.78,0000.16,0000.19,0000.10,0000.22,0000.42,0000.69,-000.26,17.4,24.3,,00.0,0643.2,31.0
2021-03-20T20:16:00Z,00000200,01000000,0001.07,0001.11,0000.39,0000.06,0000.11,-000.19,0000.57,0000.08,0000.35,17.4,24.3,,00.0,0643.2,31.0
2021-03-20T20:17:00Z,00000200,01000000,0000.96,0001.01,0000.53,0000.04,0000.20,0000.17,-000.05,0000.12,-000.14,17.3,24.3,,00.0,0643.2,31.0
2021-03-20T20:18:00Z,00000200,01000000,0001.13,0001.04,0000.28,0000.33,0000.02,0000.03,0000.46,0000.35,0000.32,17.3,24.2,,00.0,0643.2,31.0
2021-03-20T20:19:00Z,00000200,01000000,0001.11,0001.24,0000.62,-000.13,-000.16,-000.12,0000.42,0000.71,0000.19,17.3,24.2,,00.0,0643.2,31.0
2021-03-20T20:20:00Z,00000200,01000000,0000.63,0000.91,0000.34,-000.32,0000.19,0000.11,0000.39,0000.21,0000.31,17.3,24.2,,00.0,0643.2,31.0
2021-03-20T20:21:00Z,00000200,01000000,0001.22,0000.80,0000.56,0000.25,0000.15,-000.14,0000.68,0000.59,0000.77,17.3,24.2,,00.0,0643.2,31.0
2021-03-20T20:22:00Z,00000200,01000000,0001.13,0000.70,0000.48,0000.31,0000.03,-000.11,0000.50,0000.58,0000.20,17.3,24.2,,00.0,0643.2,31.0
2021-03-20T20:23:00Z,00000200,01000000,0001.12,0001.03,0000.29,0000.05,0000.08,0000.08,0000.84,0000.16,0000.17,17.4,24.2,,00.0,0643.2,31.0
2021-03-20T20:24:00Z,00000200,01000000,0001.50,0000.84,0000.31,0000.21,0000.03,0000.15,0000.35,0000.53,0000.64,17.4,24.2,,00.0,0643.2,31.0
2021-03-20T20:25:00Z,00000200,01000000,0001.59,0000.82,0000.60,0000.21,-000.04,0000.16,0000.51,0000.53,0000.30,17.5,24.3,,00.0,0643.2,31.0
2021-03-20T20:26:00Z,00000200,01000000,0001.07,0000.56,0000.42,-000.01,0000.19,0000.18,0000.35,0000.53,0000.39,17.5,24.3,,00.0,0643.2,31.0
2021-03-20T20:27:00Z,00000200,01000000,0001.09,0000.98,0000.31,0000.38,0000.15,0000.08,0000.10,0000.30,0000.28,17.6,24.3,,00.0,0643.2,31.0
2021-03-20T20:28:00Z,00000200,01000000,0000.96,0000.79,0000.45,0000.24,0000.34,0000.19,0000.75,0000.38,0000.19,17.6,24.3,,00.0,0643.2,31.0
2021-03-20T20:29:00Z,00000200,01000000,0000.88,0000.75,0000.33,0000.01,0000.18,-000.06,0000.28,0000.46,0000.18,17.6,24.4,,00.0,0643.2,31.0
2021-03-20T20:30:00Z,00000200,01000000,0001.39,0000.93,0000.34,-000.09,0000.05,0000.16,0000.66,0000.33,0000.52,17.6,24.4,,00.0,0643.2,31.0
2021-03-20T20:31:00Z,00000200,01000000,0001.31,0000.56,0000.36,0000.08,-000.17,-000.05,0000.33,0000.02,-000.04,17.6,24.3,,00.0,0643.2,31.0
2021-03-20T20:32:00Z,00000200,01000000,0001.39,0000.59,0000.55,0000.79,0000.28,0000.16,0000.36,0000.61,0000.47,17.5,24.3,,00.0,0643.2,31.0
2021-03-20T20:33:00Z,00000200,01000000,0001.11,0001.02,0000.46,0000.20,0000.37,0000.14,0000.27,0000.43,-000.17,17.5,24.3,,00.0,0643.2,31.0
2021-03-20T20:34:00Z,00000200,01000000,0001.41,0000.77,0000.41,0000.21,0000.18,0000.05,0000.32,-000.08,0000.43,17.4,24.3,,00.0,0643.2,31.0
2021-03-20T20:35:00Z,00000200,01000000,0001.38,0000.80,0000.30,-000.41,0000.12,0000.14,0000.75,0000.75,0000.25,17.4,24.2,,00.0,0643.2,31.0
2021-03-20T20:36:00Z,00000200,01000000,0001.03,0001.02,0000.36,0000.33,0000.06,0000.06,0000.03,0000.17,0000.24,17.4,24.2,,00.0,0643.2,31.0
2021-03-20T20:37:00Z,00000200,01000000,0000.80,0000.77,0000.24,0000.11,0000.12,-000.15,0000.51,0000.57,0000.11,17.3,24.2,,00.0,0643.2,31.0
2021-03-20T20:38:00Z,00000200,01000000,0001.11,0001.03,0000.15,-000.09,-000.08,-000.11,0000.38,0000.33,0000.54,17.3,24.2,,00.0,0643.2,31.0
2021-03-20T20:39:00Z,00000200,01000000,0001.31,0000.96,0000.26,0000.18,-000.11,0000.10,0000.93,0000.27,0000.14,17.3,24.2,,00.0,0643.1,31.0
2021-03-20T20:40:00Z,00000200,01000000,0001.47,0000.79,0000.23,-000.24,0000.27,-000.06,0000.16,0000.84,0000.74,17.2,24.1,,00.0,0643.2,31.0
2021-03-20T20:41:00Z,00000200,01000000,0001.03,0000.74,0000.60,-000.02,-000.08,0000.15,0000.86,0000.25,-000.08,17.2,24.1,,00.0,0643.2,31.0
2021-03-20T20:42:00Z,00000200,01000000,0001.14,0000.98,0000.31,0000.03,0000.26,0000.31,0000.25,0000.29,0000.42,17.2,24.1,,00.0,0643.2,31.0
2021-03-20T20:43:00Z,00000200,01000000,0001.39,0001.00,0000.40,0000.16,-000.17,-000.02,0000.50,0000.48,0000.22,17.1,24.1,,00.0,0643.1,31.0
2021-03-20T20:44:00Z,00000200,01000000,0001.21,0001.17,0000.38,0000.50,0000.05,-000.08,0000.56,0000.65,0000.54,17.1,24.1,,00.0,0643.2,30.9
2021-03-20T20:45:00Z,00000200,01000000,0001.05,0000.84,0000.35,0000.47,0000.12,0000.12,-000.01,0000.17,0000.30,17.0,24.0,,00.0,0643.2,30.9
2021-03-20T20:46:00Z,00000200,01000000,0001.24,0000.57,0000.29,0000.55,0000.08,-000.11,0000.86,0000.44,0000.32,17.0,24.0,,00.0,0643.2,30.9
2021-03-20T20:47:00Z,00000200,01000000,0000.95,0000.95,0000.52,0000.15,-000.00,-000.03,0000.25,0000.30,0000.19,17.0,24.0,,00.0,0643.2,30.9
2021-03-20T20:48:00Z,00000200,01000000,0001.55,0001.08,0000.47,0000.12,0000.13,-000.03,0000.33,0000.89,0000.41,16.9,24.0,,00.0,0643.2,30.9
2021-03-20T20:49:00Z,00000200,01000000,0001.57,0000.81,0000.30,-000.01,0000.13,0000.31,0000.66,-000.05,0000.15,16.9,23.9,,00.0,0643.1,30.9
2021-03-20T20:50:00Z,00000200,01000000,0001.12,0000.72,0000.41,0000.54,0000.09,-000.02,0000.56,0000.18,0000.48,16.9,23.9,,00.0,0643.1,30.9
2021-03-20T20:51:00Z,00000200,01000000,0000.92,0000.93,0000.41,0000.31,0000.13,0000.13,0000.50,0000.72,0000.41,16.9,23.9,,00.0,0643.1,30.9
2021-03-20T20:52:00Z,00000200,01000000,0001.16,0000.95,0000.40,-000.03,0000.28,0000.24,0000.28,0000.50,0000.51,16.9,23.9,,00.0,0643.1,30.9
2021-03-20T20:53:00Z,00000200,01000000,0000.87,0001.17,0000.50,0000.13,0000.02,-000.03,0000.93,0000.93,0000.48,17.0,23.9,,00.0,0643.1,30.9
2021-03-20T20:54:00Z,00000200,01000000,0001.01,0000.80,0000.55,-000.26,0000.07,0000.17,0000.29,-000.19,-000.10,17.1,23.9,,00.0,0643.1,31.0
2021-03-20T20:55:00Z,00000200,01000000,0001.33,0000.60,0000.22,0000.07,0000.20,0000.02,0000.63,0000.89,0000.49,17.1,23.9,,00.0,0643.1,31.0
2021-03-20T20:56:00Z,00000200,01000000,0001.48,0000.91,0000.52,0000.22,0000.28,0000.07,0000.10,0000.13,0000.18,17.1,23.9,,00.0,0643.1,31.0
2021-03-20T20:57:00Z,00000200,41000000,,,,,,,0000.44,0000.04,0000.15,17.2,23.9,,00.0,0643.1,31.0
2021-03-20T20:58:00Z,00000200,61000000,,,,,,,-000.42,-000.32,-000.42,16.8,24.1,,00.0,0642.2,31.0
2021-03-20T20:59:00Z,00000200,21000000,,,,,,,-000.14,0000.11,0000.04,16.7,24.2,,00.0,0642.2,30.9
